Location: Newark
(3.5000°N, 97.7500°E)
Time: 04:09:00
(UTC+00:00)

Hubble Space Telescope - Visible Passes

Search period start: 29 September 2020 00:00
Search period end: 09 October 2020 00:00
Orbit: 536 x 540 km, 28.5° (Epoch: 28 September)

Date Brightness Start Highest point End Pass type
(mag) Time Alt. Az. Time Alt. Az. Time Alt. Az.
05 Oct 2.9 11:52:30 10° S 11:54:33 13° SSE 11:56:37 10° ESE visible
05 Oct 3.7 13:31:35 10° WSW 13:32:12 14° WSW 13:32:12 14° WSW visible
06 Oct 2.6 11:40:57 10° SSW 11:43:52 18° SSE 11:46:45 10° ESE visible
06 Oct 3.1 13:20:53 10° WSW 13:22:29 22° WSW 13:22:29 22° WSW visible
06 Oct 3.5 21:55:28 10° NNE 21:56:07 10° NNE 21:56:46 10° NNE visible
07 Oct 2.5 13:10:16 10° WSW 13:12:46 32° W 13:12:46 32° W visible
07 Oct 3.2 21:44:11 12° N 21:45:29 14° NNE 21:47:37 10° ENE visible
08 Oct 2.2 12:59:46 10° W 13:03:04 33° NW 13:03:04 33° NW visible
08 Oct 2.9 21:34:27 18° NNE 21:34:50 18° NNE 21:37:42 10° ENE visible
